[[{"header":{"parameterUnit":"m.s-1","parameterCategory":1,"la1":30.2991,"la2":30.254,"lo1":-89.0895,"lo2":-89.0444,"dy":0.0017,"dx":0.0017,"nx":28,"ny":28,"refTime":"2023-11-11T03:00:00:Z","depth":0,"parameterNumber":2,"parameterNumberName":"U-component_of_WINDS"},"data":[0,0,0,0,0,0,0,0,0,0,0,0,0,0,0,0,0,0,0,0,0,0,0,0,0,0,0,0,0,0,0,0,0,0,0,0,0,0,0,0,0,0,0,0,0,0,0,0,0,0,0,0,0,0,0,0,0,0,-2.4316,-2.4314,0,-2.4177,-2.4175,-2.4174,-2.4051,-2.405,-2.4049,-2.4047,-2.3901,-2.3899,-2.3896,0,0,0,0,0,0,0,0,0,0,0,0,0,-2.4473,-2.4471,-2.4316,-2.4314,-2.4312,-2.4177,-2.4175,-2.4173,-2.4052,-2.405,-2.4048,-2.4047,-2.3902,-2.3899,-2.3896,0,0,0,0,0,0,0,0,0,0,0,0,0,-2.4377,-2.447,-2.4316,-2.4236,-2.4227,-2.4177,-2.4175,-2.4173,-2.4052,-2.405,-2.4048,-2.4046,-2.3903,-2.3899,-2.3895,-2.3913,0,0,-2.3884,-2.3882,0,0,0,0,0,0,0,0,-2.4382,-2.4371,-2.4249,-2.4241,-2.4231,-2.4129,-2.4177,-2.4086,-2.4053,-2.4118,-2.4047,-2.4045,-2.3979,-2.3968,-2.3947,-2.3906,-2.39,-2.3883,-2.3881,-2.3879,-2.3878,0,0,0,0,0,0,0,-2.4389,-2.4376,-2.4261,-2.4248,-2.4237,-2.4205,-2.4189,-2.4159,-2.4062,-2.4112,-2.4103,-2.4089,-2.3973,-2.3951,-2.3942,-2.3898,-2.3883,-2.388,-2.3877,-2.3876,-2.3867,-2.3869,0,0,0,0,0,0,-2.4409,-2.4383,-2.4265,-2.4256,-2.4303,-2.4204,-2.4186,-2.4164,-2.4062,-2.4044,-2.4091,-2.4084,-2.3958,-2.3947,-2.3937,-2.3952,-2.3879,-2.3876,-2.3873,-2.3865,-2.3868,-2.387,0,0,0,0,0,0,-2.4413,-2.44,-2.4271,-2.4317,-2.4298,-2.4204,-2.418,-2.4163,-2.414,-2.4045,-2.4027,-2.4086,-2.3956,-2.3942,-2.3921,-2.3946,-2.3874,-2.387,-2.3863,-2.3866,-2.3869,-2.3984,0,0,0,0,0,0,-2.4418,-2.4402,-2.4408,-2.4318,-2.4296,-2.4258,-2.4181,-2.4161,-2.4134,-2.4123,-2.4036,-2.4019,-2.3954,-2.3927,-2.3917,-2.3939,-2.3867,-2.386,-2.3864,-2.3868,-2.3977,-2.3991,-2.4002,0,0,0,0,0,-2.4424,-2.4444,-2.4409,-2.4395,-2.4303,-2.426,-2.4247,-2.4172,-2.4137,-2.4142,-2.4081,-2.4022,-2.3945,-2.3926,-2.3913,-2.3935,-2.3858,-2.3863,-2.3868,-2.3972,-2.3988,-2.4001,0,0,0,0,0,0,-2.4537,-2.4431,-2.4391,-2.4383,-2.4332,-2.4239,-2.4244,-2.4191,-2.4148,-2.414,-2.4047,-2.4028,-2.4018,-2.3973,-2.3955,-2.3948,-2.3894,-2.3896,-2.3977,-2.3992,-2.4004,-2.4015,-2.3864,0,0,0,0,0,-2.4562,-2.4537,-2.4445,-2.4447,-2.4424,-2.4339,-2.4317,-2.4264,-2.4207,-2.4184,-2.4122,-2.4067,-2.4031,-2.4008,-2.3969,-2.397,-2.395,-2.3979,-2.3991,-2.4001,-2.4005,-2.4004,-2.4016,-2.3886,-2.3886,-2.3886,0,0,-2.4612,-2.4551,-2.454,-2.4469,-2.4423,-2.4399,-2.4321,-2.4298,-2.428,-2.418,-2.4157,-2.411,-2.4042,-2.4033,-2.4026,-2.3996,-2.4037,-2.4007,-2.4017,-2.4014,-2.401,-2.4023,-2.4034,-2.3889,-2.3888,-2.3888,0,0,-2.4691,-2.4642,-2.4639,-2.4595,-2.4528,-2.4471,-2.4471,-2.4387,-2.4352,-2.4328,-2.4253,-2.4229,-2.4167,-2.4124,-2.4093,-2.4159,-2.4103,-2.4148,-2.4212,-2.4212,-2.4223,-2.4231,-2.4256,-2.4266,-2.4152,-2.4152,-2.4152,0,-2.4761,-2.4723,-2.4644,-2.4627,-2.4598,-2.4509,-2.4506,-2.4466,-2.4389,-2.4371,-2.4339,-2.4262,-2.421,-2.419,-2.4207,-2.4184,-2.4181,-2.4158,-2.4228,-2.4236,-2.4242,-2.4265,-2.4274,-2.4158,-2.4157,-2.4157,-2.4156,0,-2.4813,-2.4788,-2.4794,-2.4725,-2.4696,-2.4686,-2.4606,-2.4586,-2.4536,-2.4483,-2.446,-2.4396,-2.4343,-2.4334,-2.4284,-2.4307,-2.4292,-2.4245,-2.4189,-2.4262,-2.4282,-2.429,-2.4167,-2.4164,-2.4163,-2.4161,0,0,-2.4959,-2.4848,-2.4851,-2.482,-2.4739,-2.4718,-2.4704,-2.4654,-2.464,-2.459,-2.4576,-2.4528,-2.4485,-2.4451,-2.4395,-2.4395,-2.4453,-2.4348,-2.4345,-2.4371,-2.4477,-2.4514,-2.4525,-2.4416,-2.4417,-2.4418,-2.4484,0,-2.5026,-2.4998,-2.4928,-2.4921,-2.4898,-2.4813,-2.4801,-2.4751,-2.4701,-2.4673,-2.4617,-2.4586,-2.4531,-2.451,-2.4506,-2.4447,-2.4473,-2.4441,-2.4402,-2.4402,-2.4424,-2.4535,-2.4573,-2.4639,-2.4491,-2.4492,-2.4493,0,-2.51,-2.5058,-2.505,-2.4973,-2.4961,-2.4952,-2.4901,-2.4876,-2.4817,-2.4781,-2.4745,-2.4683,-2.4664,-2.4612,-2.4585,-2.4565,-2.4545,-2.4514,-2.4514,-2.4508,-2.4453,-2.4534,-2.4657,-2.4668,-2.4504,-2.4503,-2.4502,0,-2.521,-2.5151,-2.5139,-2.5114,-2.5023,-2.5019,-2.4981,-2.492,-2.4895,-2.4851,-2.4834,-2.4788,-2.4763,-2.4728,-2.4656,-2.4625,-2.4638,-2.4579,-2.4608,-2.461,-2.4615,-2.4616,-2.4738,-2.46,-2.46,-2.46,-2.4599,0,-2.5292,-2.5291,-2.5187,-2.518,-2.5177,-2.5096,-2.5094,-2.5047,-2.4995,-2.4977,-2.4899,-2.4884,-2.479,-2.4764,-2.4707,-2.4694,-2.4683,-2.4653,-2.4638,-2.4661,-2.4665,-2.4647,-2.4641,-2.4602,-2.4602,-2.4601,-2.4601,0,-2.5414,-2.5345,-2.5327,-2.5243,-2.5222,-2.5224,-2.5152,-2.5142,-2.5088,-2.5067,-2.5057,-2.4973,-2.4938,-2.4863,-2.4807,-2.4769,-2.4771,-2.4743,-2.4792,-2.4783,-2.4816,-2.4815,-2.4932,-2.4944,-2.4798,-2.48,-2.4801,0,-2.5472,-2.547,-2.5388,-2.5371,-2.5337,-2.5311,-2.5286,-2.5206,-2.5184,-2.5118,-2.5116,-2.5076,-2.5039,-2.4988,-2.4921,-2.4879,-2.485,-2.4894,-2.4843,-2.4867,-2.4853,-2.4855,-2.4855,-2.4906,-2.4908,-2.491,-2.4911,0,-2.5584,-2.555,-2.5518,-2.5476,-2.5449,-2.5411,-2.5368,-2.5358,-2.5268,-2.5247,-2.5212,-2.5184,-2.5128,-2.509,-2.5038,-2.4997,-2.494,-2.4928,-2.4933,-2.4956,-2.4985,-2.4972,-2.4824,-2.4926,-2.4924,-2.4923,-2.4922,-2.4922,-2.5676,-2.5671,-2.5613,-2.5581,-2.5541,-2.5504,-2.5491,-2.5437,-2.5407,-2.5357,-2.5311,-2.5281,-2.5223,-2.5148,-2.5111,-2.5086,-2.5057,-2.5063,-2.5065,-2.5069,-2.5079,-2.4989,-2.5076,-2.5075,-2.5075,-2.5074,-2.5074,0,-2.5785,-2.5744,-2.5716,-2.566,-2.5635,-2.5585,-2.5535,-2.5518,-2.5493,-2.5444,-2.5411,-2.5372,-2.5334,-2.5266,-2.5222,-2.5216,-2.5188,-2.5207,-2.5207,-2.5199,-2.5106,-2.5108,-2.523,-2.523,-2.523,-2.523,-2.523,-2.523,-2.5839,-2.5829,-2.5789,-2.5758,-2.5716,-2.5688,-2.5664,-2.5629,-2.5591,-2.5551,-2.5521,-2.5477,-2.542,-2.5373,-2.5336,-2.5317,-2.5305,-2.5333,-2.5306,-2.522,-2.5206,-2.5192,-2.5192,-2.5331,-2.5331,-2.5401,-2.5401,-2.5402]},{"header":{"parameterUnit":"m.s-1","parameterCategory":1,"la1":30.2991,"la2":30.254,"lo1":-89.0895,"lo2":-89.0444,"dy":0.0017,"dx":0.0017,"nx":28,"ny":28,"refTime":"2023-11-11T03:00:00:Z","depth":0,"parameterNumber":3,"parameterNumberName":"V-component_of_WINDS"},"data":[0,0,0,0,0,0,0,0,0,0,0,0,0,0,0,0,0,0,0,0,0,0,0,0,0,0,0,0,0,0,0,0,0,0,0,0,0,0,0,0,0,0,0,0,0,0,0,0,0,0,0,0,0,0,0,0,0,0,-1.5606,-1.5607,0,-1.5733,-1.5734,-1.5736,-1.5805,-1.5805,-1.5806,-1.5806,-1.593,-1.5933,-1.5936,0,0,0,0,0,0,0,0,0,0,0,0,0,-1.5418,-1.5421,-1.5606,-1.5607,-1.5609,-1.5733,-1.5734,-1.5736,-1.5805,-1.5805,-1.5806,-1.5806,-1.5929,-1.5933,-1.5937,0,0,0,0,0,0,0,0,0,0,0,0,0,-1.5517,-1.5422,-1.5606,-1.5659,-1.5665,-1.5732,-1.5734,-1.5736,-1.5805,-1.5805,-1.5806,-1.5806,-1.5928,-1.5933,-1.5937,-1.596,0,0,-1.5952,-1.5954,0,0,0,0,0,0,0,0,-1.5512,-1.5524,-1.5649,-1.5655,-1.5662,-1.5754,-1.5714,-1.5811,-1.5805,-1.5752,-1.5806,-1.5806,-1.5871,-1.588,-1.5903,-1.5966,-1.5971,-1.5952,-1.5955,-1.5957,-1.5958,0,0,0,0,0,0,0,-1.5505,-1.5519,-1.5656,-1.5651,-1.5659,-1.5674,-1.5689,-1.5733,-1.5808,-1.5756,-1.5762,-1.5776,-1.5874,-1.5899,-1.5907,-1.5973,-1.5952,-1.5956,-1.5959,-1.5961,-1.6061,-1.6061,0,0,0,0,0,0,-1.549,-1.5513,-1.5652,-1.566,-1.5586,-1.5677,-1.5694,-1.5724,-1.5808,-1.5821,-1.5776,-1.5779,-1.589,-1.5901,-1.5911,-1.5945,-1.5957,-1.5961,-1.5964,-1.6061,-1.6061,-1.6061,0,0,0,0,0,0,-1.5486,-1.5502,-1.5647,-1.5588,-1.5608,-1.568,-1.5714,-1.5726,-1.5751,-1.5822,-1.5835,-1.5787,-1.5891,-1.5905,-1.5948,-1.595,-1.5963,-1.5968,-1.6062,-1.6061,-1.6061,-1.6011,0,0,0,0,0,0,-1.548,-1.55,-1.5511,-1.5588,-1.5611,-1.5683,-1.5714,-1.5728,-1.5759,-1.5764,-1.5836,-1.5849,-1.5892,-1.5941,-1.5953,-1.5957,-1.5971,-1.6062,-1.6061,-1.6061,-1.6013,-1.6009,-1.6006,0,0,0,0,0,-1.5473,-1.549,-1.5511,-1.5527,-1.5626,-1.5683,-1.5696,-1.5747,-1.5759,-1.577,-1.5816,-1.5846,-1.5947,-1.5944,-1.5959,-1.5964,-1.6062,-1.6062,-1.6061,-1.6014,-1.601,-1.6006,0,0,0,0,0,0,-1.541,-1.5501,-1.5525,-1.5568,-1.5618,-1.5695,-1.571,-1.5741,-1.5786,-1.5789,-1.5849,-1.5865,-1.5903,-1.5937,-1.5933,-1.5991,-1.6008,-1.601,-1.5967,-1.5964,-1.596,-1.5952,-1.5975,0,0,0,0,0,-1.5401,-1.5442,-1.5519,-1.5549,-1.5573,-1.5637,-1.5663,-1.5699,-1.5752,-1.5772,-1.5822,-1.587,-1.5913,-1.594,-1.5983,-1.6017,-1.6034,-1.6028,-1.6024,-1.6021,-1.6023,-1.6045,-1.6043,-1.606,-1.606,-1.606,0,0,-1.5383,-1.5438,-1.546,-1.5538,-1.558,-1.5619,-1.5654,-1.5694,-1.5723,-1.5778,-1.5823,-1.586,-1.5918,-1.5957,-1.5977,-1.5987,-1.6022,-1.6021,-1.6018,-1.6022,-1.6044,-1.6042,-1.6041,-1.606,-1.606,-1.606,0,0,-1.5371,-1.5417,-1.5448,-1.549,-1.5554,-1.5596,-1.5603,-1.5676,-1.5704,-1.575,-1.5792,-1.5826,-1.5899,-1.5939,-1.5968,-1.597,-1.6,-1.5982,-1.5965,-1.5985,-1.5984,-1.5983,-1.5984,-1.5984,-1.5983,-1.5983,-1.5983,0,-1.5341,-1.5404,-1.5459,-1.5497,-1.553,-1.5583,-1.5614,-1.5651,-1.5725,-1.5746,-1.5756,-1.5849,-1.5891,-1.5941,-1.5941,-1.5963,-1.5973,-1.5975,-1.5979,-1.5979,-1.5979,-1.5981,-1.5982,-1.5981,-1.5981,-1.5981,-1.5982,0,-1.5363,-1.5405,-1.5422,-1.5495,-1.5529,-1.5563,-1.5623,-1.565,-1.5682,-1.5722,-1.5768,-1.5821,-1.5876,-1.589,-1.5921,-1.5944,-1.5949,-1.5968,-1.5987,-1.5974,-1.5977,-1.5979,-1.5977,-1.5978,-1.5979,-1.598,0,0,-1.5316,-1.5419,-1.5425,-1.5459,-1.5533,-1.5566,-1.5601,-1.5658,-1.568,-1.5728,-1.576,-1.582,-1.5839,-1.5872,-1.5907,-1.5925,-1.5924,-1.5943,-1.5945,-1.5938,-1.5953,-1.5939,-1.594,-1.5943,-1.5944,-1.5944,-1.5949,0,-1.5316,-1.5386,-1.5437,-1.5486,-1.5526,-1.5576,-1.5607,-1.5654,-1.5693,-1.5731,-1.5772,-1.5814,-1.5836,-1.5856,-1.5875,-1.592,-1.5928,-1.592,-1.5973,-1.5974,-1.5959,-1.5941,-1.5927,-1.5929,-1.595,-1.5951,-1.5951,0,-1.5326,-1.5376,-1.5429,-1.55,-1.5519,-1.5546,-1.5601,-1.5637,-1.5691,-1.5718,-1.5755,-1.5792,-1.583,-1.5843,-1.5897,-1.589,-1.5914,-1.5939,-1.594,-1.5949,-1.5963,-1.595,-1.5931,-1.5932,-1.5953,-1.5953,-1.5953,0,-1.5289,-1.5368,-1.5411,-1.5438,-1.5521,-1.5539,-1.5574,-1.5629,-1.5659,-1.5706,-1.5727,-1.5776,-1.5804,-1.5841,-1.5889,-1.5895,-1.5938,-1.5955,-1.5961,-1.5959,-1.5969,-1.5968,-1.5955,-1.5981,-1.5981,-1.5981,-1.5981,0,-1.5285,-1.5316,-1.5396,-1.5422,-1.5458,-1.5514,-1.5548,-1.5587,-1.5635,-1.5669,-1.5713,-1.5743,-1.5805,-1.5842,-1.5879,-1.5918,-1.593,-1.5952,-1.5962,-1.5949,-1.5946,-1.5967,-1.5969,-1.5981,-1.5981,-1.5981,-1.5981,0,-1.525,-1.5305,-1.5355,-1.5429,-1.5449,-1.5472,-1.5535,-1.5561,-1.5602,-1.5644,-1.5657,-1.572,-1.5766,-1.5817,-1.5879,-1.5905,-1.5941,-1.5955,-1.5924,-1.593,-1.5933,-1.5933,-1.5934,-1.5937,-1.5959,-1.5959,-1.5959,0,-1.5245,-1.5271,-1.5348,-1.5375,-1.5409,-1.5451,-1.5483,-1.5538,-1.5569,-1.5633,-1.5652,-1.5701,-1.5745,-1.5815,-1.5865,-1.5913,-1.5929,-1.5926,-1.5936,-1.5923,-1.5931,-1.5929,-1.5932,-1.5923,-1.5923,-1.5922,-1.5922,0,-1.523,-1.5256,-1.5301,-1.5355,-1.5392,-1.5437,-1.5483,-1.5502,-1.5566,-1.5598,-1.5647,-1.568,-1.5745,-1.5793,-1.5847,-1.5881,-1.5912,-1.5918,-1.5922,-1.5911,-1.5892,-1.5904,-1.5917,-1.5918,-1.5919,-1.5919,-1.5919,-1.5919,-1.5212,-1.5237,-1.5296,-1.5344,-1.5385,-1.5428,-1.5457,-1.5501,-1.5543,-1.5602,-1.5631,-1.5679,-1.5732,-1.5808,-1.5841,-1.5878,-1.5888,-1.5894,-1.5896,-1.5897,-1.5894,-1.5885,-1.5888,-1.5888,-1.5888,-1.5888,-1.5889,0,-1.5201,-1.5241,-1.5285,-1.535,-1.5387,-1.5414,-1.5467,-1.5496,-1.5539,-1.5586,-1.5628,-1.5683,-1.573,-1.5784,-1.5834,-1.5854,-1.5869,-1.5865,-1.5865,-1.5872,-1.5881,-1.5874,-1.5852,-1.5852,-1.5852,-1.5852,-1.5852,-1.5852,-1.52,-1.5245,-1.5277,-1.5342,-1.5381,-1.5431,-1.5459,-1.5497,-1.5536,-1.5596,-1.5637,-1.5672,-1.5721,-1.5775,-1.5819,-1.5834,-1.5851,-1.5843,-1.5861,-1.5869,-1.5872,-1.5875,-1.5868,-1.5845,-1.5845,-1.585,-1.585,-1.585]}]]